Location: Bonningues
(50.7927°N, 2.0150°E)
Time: 16:35:16
(UTC+00:00)

USA 267 - Pass Details

Date: 08 August 2020
Orbit: 1102 x 1106 km, 123.0° (Epoch: 18 September)

Event Time Altitude Azimuth Distance (km) Brightness Sun altitude
Rises 21:22:55 0° 59° (ENE) 3,928 6.1 -15.3°
Reaches altitude 10° 21:25:24 10° 59° (ENE) 2,968 5.5 -15.5°
Maximum altitude 21:31:59 90° 333° (NNW) 1,110 3.3 -16.2°
Drops below altitude 10° 21:38:33 10° 242° (WSW) 2,961 5.6 -16.8°
Sets 21:41:01 0° 242° (WSW) 3,918 6.2 -17.0°
